Flag for Germany Weather past 2 weeks in Erfurt, Thuringia, Germany

Now
73 °F

Sunny.


Feels Like: 77 °F
Forecast: 56 / 79 °F
Wind: 5 mph from Northeast

Location: Erfurt-Bindersleben

Current Time: Jul 31, 2014 at 3:41:48 PM

Latest Report: Jul 31, 2014 at 3:20 PM


Visibility: 10 mi

Pressure: 29.98 "Hg

Humidity: 41%

Dew point: 48 °F

Location of ErfurtLocation

Historic Weather in Erfurt — Graph

°F

Erfurt temperature yesterday

Maximum temperature yesterday: 70 °F (at 11:50 AM)
Minimum temperature yesterday: 64 °F (at 2:50 AM)
Average temperature yesterday: 66 °F

Past Weeks' High & Low Weather Summary

 TemperatureHumidityPressure
High88 °F (Jul 19, 3:20 PM)100% (Jul 21, 4:50 AM)30.21 "Hg (Jul 21, 4:50 AM)
Low55 °F (Jul 28, 5:50 AM)25% (Jul 19, 6:20 PM)29.74 "Hg (Jul 29, 10:20 PM)
Average69 °F72%29.97 "Hg
* Reported Jul 16 2:20 PM — Jul 31 2:20 PM, Erfurt, Weather by CustomWeather, © 2014

Note: Actual official high and low records may vary slightly from our data, if they occured in-between our weather recording intervals... More about our weather records

Advertising

Erfurt weather history for previous 24 hours

 ConditionsComfort  
Time TempWeatherWind HumidityBarometerVisibility
2:20 PM
Jul 31
73 °FPartly sunny.6 mph50%29.98 "HgN/A
1:50 PM72 °FPartly sunny.3 mph47%29.98 "HgN/A
1:20 PM70 °FPartly sunny.3 mph50%30.01 "HgN/A
12:50 PM70 °FPartly sunny.5 mph60%30.01 "HgN/A
12:20 PM70 °FPartly sunny.2 mph53%30.01 "HgN/A
11:50 AM70 °FPartly sunny.1 mph60%30.01 "HgN/A
11:20 AM68 °FScattered clouds.2 mph64%30.01 "HgN/A
10:50 AM68 °FScattered clouds.1 mph64%30.01 "HgN/A
10:20 AM66 °FScattered clouds.2 mph68%30.01 "HgN/A
9:50 AM66 °FScattered clouds.2 mph68%30.01 "HgN/A
9:20 AM64 °FScattered clouds.3 mph78%30.01 "HgN/A
8:50 AM64 °FPassing clouds.1 mph73%30.01 "HgN/A
8:20 AM63 °FScattered clouds.2 mph83%30.01 "HgN/A
7:50 AM63 °FPartly sunny.2 mph83%30.01 "HgN/A
7:20 AM61 °FPartly sunny.2 mph94%30.01 "HgN/A
6:50 AM61 °FPartly sunny.2 mph88%29.98 "HgN/A
6:20 AM59 °FClear.5 mph94%29.98 "Hg10 mi
5:50 AM59 °FClear.6 mph94%29.98 "Hg10 mi
5:20 AM59 °FClear.7 mph94%29.95 "Hg10 mi
4:50 AM59 °FClear.6 mph88%29.95 "Hg10 mi
4:20 AM61 °FClear.7 mph88%29.95 "Hg10 mi
3:50 AM61 °FClear.6 mph88%29.95 "Hg10 mi
3:20 AM63 °FPassing clouds.6 mph88%29.95 "HgN/A
2:50 AM63 °FPartly cloudy.6 mph88%29.95 "HgN/A
2:20 AM63 °FClear.6 mph88%29.95 "Hg10 mi
1:50 AM63 °FClear.7 mph88%29.95 "Hg10 mi
1:20 AM63 °FClear.7 mph88%29.95 "Hg10 mi
12:50 AM63 °FClear.7 mph94%29.95 "Hg10 mi
12:20 AM64 °FClear.8 mph88%29.95 "Hg10 mi
11:50 PM
Jul 30
64 °FPassing clouds.8 mph88%29.95 "HgN/A
11:20 PM64 °FClear.7 mph88%29.95 "Hg10 mi
10:50 PM64 °FClear.8 mph88%29.92 "Hg10 mi
10:20 PM64 °FPassing clouds.6 mph88%29.92 "HgN/A
9:50 PM64 °FPartly sunny.7 mph88%29.92 "HgN/A
9:20 PM64 °FPartly sunny.8 mph88%29.92 "HgN/A
8:50 PM64 °FPartly sunny.8 mph88%29.89 "HgN/A
8:20 PM66 °FBroken clouds.12 mph83%29.89 "HgN/A
7:50 PM66 °FBroken clouds.12 mph83%29.89 "HgN/A
7:20 PM66 °FPartly sunny.12 mph83%29.89 "HgN/A
6:50 PM66 °FPartly sunny.12 mph83%29.86 "HgN/A
6:20 PM66 °FBroken clouds.13 mph83%29.86 "HgN/A
5:50 PM66 °FBroken clouds.13 mph83%29.86 "HgN/A
5:20 PM66 °FBroken clouds.10 mph83%29.86 "HgN/A
4:50 PM66 °FScattered showers. Broken clouds.3 mph88%29.86 "HgN/A
4:20 PM64 °FSprinkles. Broken clouds.5 mph94%29.83 "HgN/A
3:50 PM66 °FSprinkles. Broken clouds.9 mph88%29.86 "HgN/A
3:20 PM68 °FSprinkles. Partly sunny.6 mph88%29.83 "HgN/A
Weather by CustomWeather, © 2014

See weather overviewHow to use our weather pages